Christina O — C6FN7 — position and weather

sailwx.info

Track history (hours):
 
Tides and Currents Weather Stations Pressure Air Temp Water Temp Dewpoint Dewpoint Depression Visibility Wind Speed Wind Dir Waves Ship Positions

Christina O

Operator: V Ships Leisure SAM

Last reported at 2014-Oct-17 07:12 UTC. Time now 2014-Oct-22 00:16 UTC.
Position N 46°34' W 072°08'.

Length 186 m; draft 6.1 m.

Type: Ship. MMSI: 308322000.

Date/timePositionNaut miles runAvg speedWind from/ knotsBaromVisibWave heightAir tempDewpointWater temp
2014-Oct-17 07:12N 46°34' W 072°08'812.4
2014-Oct-17 06:33N 46°28' W 072°15'1211.9
2014-Oct-17 05:33N 46°22' W 072°30'1110.7
2014-Oct-17 04:33N 46°16' W 072°43'3210.2
2014-Oct-17 01:27N 45°53' W 073°15'9 9.9
2014-Oct-17 00:33N 45°46' W 073°23'10 9.5
2014-Oct-16 23:33N 45°38' W 073°29'8 0.6
2014-Oct-16 10:19N 45°30' W 073°33'2 2.7
2014-Oct-16 09:33N 45°32' W 073°32'8 7.6
2014-Oct-16 08:33N 45°39' W 073°28'9 8.6
2014-Oct-16 07:33N 45°47' W 073°22'10 9.9
2014-Oct-16 06:33N 45°54' W 073°13'24 9.9
2014-Oct-16 04:05N 46°13' W 072°50'612.0
2014-Oct-16 03:33N 46°16' W 072°42'8 8.2
2014-Oct-16 02:33N 46°21' W 072°32'0 0.0
2014-Oct-16 01:30N 46°21' W 072°32'0 0.0
2014-Oct-16 00:30N 46°21' W 072°32'0 0.0
2014-Oct-15 23:30N 46°21' W 072°32'0 0.0
2014-Oct-15 22:30N 46°21' W 072°32'0 0.0
2014-Oct-15 21:30N 46°21' W 072°32'0 0.0
2014-Oct-15 20:30N 46°21' W 072°32'0 0.0
2014-Oct-15 19:30N 46°21' W 072°32'0 0.0
2014-Oct-15 18:30N 46°21' W 072°32'0 0.0
2014-Oct-15 17:30N 46°21' W 072°32'0 0.0
2014-Oct-15 16:32N 46°21' W 072°32'6 6.4
2014-Oct-15 15:33N 46°24' W 072°24'1212.1
2014-Oct-15 14:33N 46°32' W 072°11'1211.8
2014-Oct-15 13:33N 46°38' W 071°56'  
2014-Oct-08 22:33N 44°29' W 063°30'10 9.6
2014-Oct-08 21:31N 44°38' W 063°34'0 0.0
2014-Oct-08 20:19N 44°38' W 063°34'0 0.0
2014-Oct-08 19:22N 44°38' W 063°34'0 0.0
2014-Oct-08 18:25N 44°38' W 063°34'0 0.0
2014-Oct-08 17:25N 44°38' W 063°34'0 0.0
2014-Oct-08 16:25N 44°38' W 063°34'0 0.0
2014-Oct-08 15:25N 44°38' W 063°34'0 0.0
2014-Oct-08 14:30N 44°38' W 063°34'7 6.9
2014-Oct-08 13:33N 44°32' W 063°31'3012.5
2014-Oct-08 11:09N 44°06' W 063°51'  
Track history (hours):
 
Tides and Currents Weather Stations Pressure Air Temp Water Temp Dewpoint Dewpoint Depression Visibility Wind Speed Wind Dir Waves Ship Positions

Christina O

Operator: V Ships Leisure SAM

Last reported at 2014-Oct-17 07:12 UTC. Time now 2014-Oct-22 00:16 UTC.
Position N 46°34' W 072°08'.

Length 186 m; draft 6.1 m.

Type: Ship. MMSI: 308322000.

Date/timePositionNaut miles runAvg speedWind from/ knotsBaromVisibWave heightAir tempDewpointWater temp
2014-Oct-17 07:12N 46°34' W 072°08'812.4
2014-Oct-17 06:33N 46°28' W 072°15'1211.9
2014-Oct-17 05:33N 46°22' W 072°30'1110.7
2014-Oct-17 04:33N 46°16' W 072°43'3210.2
2014-Oct-17 01:27N 45°53' W 073°15'9 9.9
2014-Oct-17 00:33N 45°46' W 073°23'10 9.5
2014-Oct-16 23:33N 45°38' W 073°29'8 0.6
2014-Oct-16 10:19N 45°30' W 073°33'2 2.7
2014-Oct-16 09:33N 45°32' W 073°32'8 7.6
2014-Oct-16 08:33N 45°39' W 073°28'9 8.6
2014-Oct-16 07:33N 45°47' W 073°22'10 9.9
2014-Oct-16 06:33N 45°54' W 073°13'24 9.9
2014-Oct-16 04:05N 46°13' W 072°50'612.0
2014-Oct-16 03:33N 46°16' W 072°42'8 8.2
2014-Oct-16 02:33N 46°21' W 072°32'0 0.0
2014-Oct-16 01:30N 46°21' W 072°32'0 0.0
2014-Oct-16 00:30N 46°21' W 072°32'0 0.0
2014-Oct-15 23:30N 46°21' W 072°32'0 0.0
2014-Oct-15 22:30N 46°21' W 072°32'0 0.0
2014-Oct-15 21:30N 46°21' W 072°32'0 0.0
2014-Oct-15 20:30N 46°21' W 072°32'0 0.0
2014-Oct-15 19:30N 46°21' W 072°32'0 0.0
2014-Oct-15 18:30N 46°21' W 072°32'0 0.0
2014-Oct-15 17:30N 46°21' W 072°32'0 0.0
2014-Oct-15 16:32N 46°21' W 072°32'6 6.4
2014-Oct-15 15:33N 46°24' W 072°24'1212.1
2014-Oct-15 14:33N 46°32' W 072°11'1211.8
2014-Oct-15 13:33N 46°38' W 071°56'  
2014-Oct-08 22:33N 44°29' W 063°30'10 9.6
2014-Oct-08 21:31N 44°38' W 063°34'0 0.0
2014-Oct-08 20:19N 44°38' W 063°34'0 0.0
2014-Oct-08 19:22N 44°38' W 063°34'0 0.0
2014-Oct-08 18:25N 44°38' W 063°34'0 0.0
2014-Oct-08 17:25N 44°38' W 063°34'0 0.0
2014-Oct-08 16:25N 44°38' W 063°34'0 0.0
2014-Oct-08 15:25N 44°38' W 063°34'0 0.0
2014-Oct-08 14:30N 44°38' W 063°34'7 6.9
2014-Oct-08 13:33N 44°32' W 063°31'3012.5
2014-Oct-08 11:09N 44°06' W 063°51'  

Dump ship's entire track history